sat.trackr.live / text

‹ back to catalog

STARLINK-37400

NORAD 68777 · 2026-086M

PAYLOAD ACTIVE UNKNOWN

§ Identity

Operator
Country
US
Launch date
2026-04-19
Launch site
AFWTR
Launch vehicle
Mass (kg)
RCS (m²)

Purposes: comms

External: N2YO · Heavens-Above · Gunter

§ Orbital elements

Epoch: 2026-09-19T01:12:33.972480Z

Period
93.91 min
Inclination
97.2844°
Eccentricity
0.0001681
Mean motion
15.33455568 rev/d
Perigee alt
464.4 km
Apogee alt
466.7 km
Semi-major
6,843.6 km
B*
4.9181e-4
RAAN
297.5112°
Arg perigee
108.0243°
Mean anomaly
252.1183°
Rev number
2,346

§ Raw data

STARLINK-374001 68777U 26086M   26262.05039320  .00015841  00000+0  49181-3 0  99912 68777  97.2844 297.5112 0001681 108.0243 252.1183 15.33455568 23464

JSON: /api/v1/satellites/68777 · /tle

For live sub-satellite position, see the globe view (requires WebGL).

§ Visibility from observer

Set your observer location to see the next 7 days of passes ≥ 10°. The values pass through the URL so the page stays shareable.

No JS? Fill the form by hand. The geolocation button needs JavaScript.